www.pogodaiklimat.ru

Погода и климат >> Архив погоды >> Норвегия >> Хасвик аэропорт


ПОГОДА в Хасвик аэропорту

  • Прогноз погоды в Хасвик аэропорту
  • Монитор погоды в Хасвик аэропорту

АРХИВ ПОГОДЫ в Хасвик аэропорту

Время (UTC), дата Ветер
(напр.,м/с)
 
Видим.   Явления Облачность Т
(С)
Тd
(С)
f
(%)
Тe
(С)
Тes
(С)
Комфортность P
(гПа)
Po
(гПа)
Тmin
(С)
Tmax
(С)
R
(мм)
R24
(мм)
S
(см)
04 10.07 В 5
{8}
н/о н/о +11.2 +6.2 71 +9 +9 1018.7 1017.9
05 10.07 В 5
{7}
н/о н/о +11.0 +6.0 71 +8 +8 1018.4 1017.6
06 10.07 В 4
{8}
н/о н/о +11.3 +6.2 71 +9 +9 1018.4 1017.5 +7.9 +12.2
07 10.07 В 5
{6}
н/о н/о +11.8 +6.3 69 +9 +9 1018.3 1017.5
08 10.07 В 5
{6}
н/о н/о +11.4 +7.3 76 +9 +9 1018.5 1017.6
09 10.07 ЮВ 5
{6}
н/о н/о +11.3 +7.8 79 +9 +9 1018.1 1017.3
10 10.07 ЮВ 5
{7}
н/о н/о +11.8 +7.7 76 +9 +9 1018.0 1017.2
11 10.07 СЗ 3
{6}
н/о н/о +12.3 +7.2 71 +11 +11 1018.0 1017.1
12 10.07 СЗ 3
{7}
н/о н/о +13.6 +6.5 62 +13 +13 1017.8 1016.9
13 10.07 ЮВ 3
{4}
н/о н/о +13.0 +7.0 67 +12 +12 1017.6 1016.7
14 10.07 СВ 1
{4}
н/о н/о +12.9 +6.9 67 +13 +13 1017.2 1016.3
15 10.07 З 2
{3}
н/о н/о +13.4 +7.2 66 +13 +13 1016.8 1016.0
16 10.07 З 3
{5}
н/о н/о +12.6 +8.1 74 +11 +11 1016.6 1015.7
17 10.07 ЮВ 2
{3}
н/о н/о +12.3 +8.0 75 +11 +11 1016.4 1015.6
18 10.07 В 2
{5}
н/о н/о +11.3 +9.6 89 +10 +10 1016.5 1015.7 +11.2 +14.6
19 10.07 В 1
{2}
н/о н/о +11.3 +7.8 79 +11 +11 1016.3 1015.4
20 10.07 З 1
{2}
н/о н/о +11.7 +8.0 78 +12 +12 1015.9 1015.1
21 10.07 З 2
{4}
н/о н/о +10.5 +8.9 90 +9 +9 1015.5 1014.7
22 10.07 З 3
{5}
н/о н/о +10.2 +8.5 89 +8 +8 1015.3 1014.4
23 10.07 З 1
{4}
н/о н/о +10.0 +8.8 92 +9 +9 1015.1 1014.2
00 11.07 ЮВ 1
{5}
н/о н/о +10.4 +9.2 92 +10 +10 1014.8 1013.9
01 11.07 Ю 1
{2}
н/о н/о +10.1 +7.5 84 +10 +10 1014.6 1013.8
02 11.07 В 1
{2}
н/о н/о +10.4 +7.1 80 +10 +10 1014.6 1013.7
03 11.07 З 2
{3}
н/о н/о +10.6 +7.5 81 +9 +9 1014.5 1013.6
04 11.07 СЗ 2
{3}
н/о н/о +11.1 +7.4 78 +10 +10 1014.2 1013.3
05 11.07 СЗ 2
{4}
н/о н/о +11.7 +6.8 72 +11 +11 1013.9 1013.1
06 11.07 З 2
{4}
н/о н/о +12.9 +6.7 66 +12 +12 1014.0 1013.1 +9.9 +13.0
07 11.07 СЗ 2
{3}
н/о н/о +13.1 +6.9 66 +13 +13 1014.0 1013.2
08 11.07 З 3
{4}
н/о н/о +13.6 +7.2 65 +13 +13 1014.1 1013.2
09 11.07 З 3
{4}
н/о н/о +13.8 +5.7 58 +13 +13 1014.2 1013.3
10 11.07 СЗ 4
{7}
н/о н/о +13.9 +7.0 63 +13 +13 1014.0 1013.1
11 11.07 СЗ 5
{6}
н/о н/о +14.4 +7.0 61 +13 +13 1013.7 1012.9
12 11.07 СЗ 5
{7}
н/о н/о +14.8 +6.9 59 +13 +13 1013.8 1012.9
13 11.07 СЗ 6
{8}
н/о н/о +14.5 +6.9 60 +13 +13 1014.0 1013.1
14 11.07 С 6
{8}
н/о н/о +13.9 +6.0 59 +12 +12 1013.9 1013.1
15 11.07 ЮВ 3
{9}
н/о н/о +14.8 +7.8 63 +14 +14 1014.1 1013.2
16 11.07 В 2
{6}
н/о н/о +15.0 +7.6 61 +15 +15 1014.0 1013.1
17 11.07 СВ 2
{6}
н/о н/о +14.5 +7.6 63 +14 +14 1013.9 1013.1
18 11.07 В 1
{9}
н/о н/о +14.0 +8.2 68 +14 +14 1013.9 1013.0 +12.2 +15.5
19 11.07 СЗ 4
{5}
н/о н/о +11.8 +7.1 73 +10 +10 1013.9 1013.0
20 11.07 СЗ 2
{5}
н/о н/о +11.4 +7.3 76 +10 +10 1014.0 1013.2
21 11.07 З 2
{3}
н/о н/о +10.0 +7.8 86 +8 +8 1014.2 1013.3
22 11.07 З 2
{3}
н/о н/о +9.4 +7.4 87 +8 +8 1014.2 1013.4
23 11.07 З 1
{2}
н/о н/о +7.7 +7.4 98 +7 +7 1014.3 1013.5
00 12.07 СЗ 2
{5}
н/о н/о +8.0 +8.0 100 +6 +6 1014.3 1013.5
01 12.07 СЗ 1
{2}
н/о н/о +7.9 +7.9 100 +7 +7 1014.3 1013.4
02 12.07 СЗ 3
{4}
н/о н/о +9.0 +9.0 100 +6 +6 1014.4 1013.5
03 12.07 З 3
{4}
н/о н/о +9.4 +9.4 100 +7 +7 1014.4 1013.5
04 12.07 З 4
{5}
н/о н/о +9.8 +8.7 93 +7 +7 1014.4 1013.6
05 12.07 З 5
{6}
н/о н/о +10.0 +8.3 89 +7 +7 1014.6 1013.8
06 12.07 З 4
{6}
н/о н/о +10.1 +7.9 86 +7 +7 1014.8 1013.9 +7.7 +14.0
07 12.07 З 5
{6}
н/о н/о +10.2 +7.8 85 +7 +7 1014.9 1014.1
08 12.07 З 6
{7}
н/о н/о +10.5 +7.7 83 +7 +7 1014.9 1014.1
09 12.07 З 6
{7}
н/о н/о +10.6 +8.0 84 +7 +7 1014.9 1014.1
10 12.07 З 6
{7}
н/о н/о +10.8 +8.2 84 +8 +8 1014.9 1014.0
11 12.07 З 6
{7}
н/о н/о +10.7 +8.1 84 +7 +7 1014.9 1014.0
12 12.07 З 5
{7}
н/о н/о +11.0 +8.8 86 +8 +8 1014.8 1014.0
13 12.07 З 4
{7}
н/о н/о +11.6 +9.5 87 +9 +9 1014.8 1013.9
14 12.07 З 3
{5}
н/о н/о +12.4 +9.4 82 +11 +11 1014.8 1014.0
15 12.07 ЮЗ 2
{4}
н/о н/о +14.8 +8.3 65 +15 +15 1014.6 1013.7
16 12.07 В 3
{3}
н/о н/о +14.1 +9.3 73 +13 +13 1014.7 1013.8
17 12.07 В 3
{4}
н/о н/о +14.7 +7.8 63 +14 +14 1014.6 1013.8
18 12.07 В 3
{7}
н/о н/о +13.5 +7.1 65 +12 +12 1014.6 1013.7 +10.0 +15.0
19 12.07 ЮЗ 1
{3}
н/о н/о +13.5 +6.6 63 +14 +14 1014.7 1013.8
20 12.07 В 1
{2}
н/о н/о +12.7 +7.2 69 +13 +13 1014.9 1014.1
21 12.07 штиль 0
{1}
н/о н/о +11.3 +6.9 74 +11 +11 1015.1 1014.2
22 12.07 В 1
{2}
н/о н/о +9.9 +7.2 83 +9 +9 1015.2 1014.3
23 12.07 ЮВ 1
{2}
н/о н/о +8.7 +8.6 99 +8 +8 1015.3 1014.4
00 13.07 З 1
{3}
н/о н/о +8.3 +7.1 92 +7 +7 1015.3 1014.4
01 13.07 ЮВ 1
{2}
н/о н/о +8.0 +6.1 88 +7 +7 1015.4 1014.5
02 13.07 З 2
{4}
н/о н/о +9.8 +7.1 83 +8 +8 1015.5 1014.7
03 13.07 СВ 1
{4}
н/о н/о +11.8 +6.1 68 +12 +12 1015.5 1014.6
04 13.07 В 2
{4}
н/о н/о +12.3 +6.2 66 +12 +12 1015.5 1014.7
05 13.07 В 5
{7}
н/о н/о +12.4 +5.6 63 +10 +10 1015.5 1014.7
06 13.07 В 5
{7}
н/о н/о +12.3 +5.7 64 +10 +10 1015.6 1014.7 +7.5 +14.7
07 13.07 В 6
{8}
н/о н/о +13.0 +5.0 58 +11 +11 1015.7 1014.8
08 13.07 В 6
{8}
н/о н/о +12.4 +4.9 60 +10 +10 1016.0 1015.1
09 13.07 В 6
{9}
н/о н/о +13.7 +4.3 53 +12 +12 1016.0 1015.2
10 13.07 В 6
{7}
н/о н/о +13.8 +5.2 56 +12 +12 1015.9 1015.0
11 13.07 ЮВ 4
{7}
н/о н/о +13.3 +5.2 58 +12 +12 1015.8 1015.0
12 13.07 ЮВ 3
{9}
н/о н/о +13.2 +5.6 60 +12 +12 1015.8 1015.0
13 13.07 СЗ 6
{9}
н/о н/о +14.3 +6.2 58 +13 +13 1015.6 1014.8
14 13.07 ЮВ 3
{10}
н/о н/о +14.1 +5.7 57 +13 +13 1015.7 1014.9
15 13.07 С 6
{10}
н/о н/о +13.4 +6.5 63 +11 +11 1015.8 1015.0
16 13.07 С 6
{12}
н/о н/о +12.6 +6.2 65 +10 +10 1015.9 1015.1
17 13.07 С 3
{10}
н/о н/о +12.7 +5.9 63 +11 +11 1016.0 1015.2
18 13.07 Ю 4
{12}
н/о н/о +11.5 +6.4 71 +9 +9 1016.2 1015.3 +11.4 +15.1
19 13.07 С 4
{9}
н/о н/о +10.8 +4.7 66 +9 +9 1016.3 1015.5
20 13.07 С 4
{10}
н/о н/о +10.1 +4.7 69 +8 +8 1016.6 1015.7
21 13.07 С 3
{9}
н/о н/о +9.7 +4.5 70 +8 +8 1016.7 1015.8
22 13.07 С 4
{7}
н/о н/о +9.1 +4.1 71 +6 +6 1016.9 1016.0
23 13.07 С 4
{7}
н/о н/о +8.7 +4.2 73 +6 +6 1017.0 1016.1
00 14.07 С 4
{10}
н/о н/о +8.7 +4.0 72 +6 +6 1017.0 1016.1
01 14.07 СВ 1
{6}
н/о н/о +8.8 +4.2 73 +8 +8 1017.0 1016.2
02 14.07 ЮЗ 1
{2}
н/о н/о +8.6 +4.2 74 +8 +8 1016.9 1016.0
03 14.07 В 1
{3}
н/о н/о +8.9 +3.5 69 +8 +8 1017.0 1016.2
04 14.07 С 4
{8}
н/о н/о +8.6 +5.0 78 +6 +6 1017.1 1016.2
05 14.07 С 3
{8}
н/о н/о +8.6 +4.8 77 +6 +6 1016.9 1016.1
06 14.07 СЗ 4
{8}
н/о н/о +9.3 +4.5 72 +7 +7 1016.9 1016.1 +8.3 +11.6
07 14.07 С 5
{8}
н/о н/о +9.5 +4.7 72 +6 +6 1016.8 1016.0
08 14.07 С 5
{8}
н/о н/о +9.4 +5.0 74 +6 +6 1016.9 1016.1
09 14.07 С 4
{8}
н/о н/о +10.1 +3.8 65 +8 +8 1017.1 1016.2
10 14.07
{7}
н/о н/о +10.5 +4.9 68 1017.0 1016.2
11 14.07 ЮВ 4
{5}
н/о н/о +9.5 +6.2 80 +7 +7 1017.0 1016.1
12 14.07 В 4
{8}
н/о н/о +9.5 +5.9 78 +7 +7 1016.9 1016.0
13 14.07 СВ 3
{6}
н/о н/о +10.3 +5.7 73 +8 +8 1016.9 1016.0
14 14.07 СЗ 4
{5}
н/о н/о +10.7 +3.5 61 +8 +8 1016.8 1016.0
15 14.07 С 3
{6}
н/о н/о +10.4 +4.6 67 +9 +9 1016.8 1015.9
16 14.07 С 2
{6}
н/о н/о +10.2 +3.7 64 +9 +9 1016.6 1015.7
17 14.07 ЮВ 2
{4}
н/о н/о +10.1 +4.9 70 +9 +9 1016.5 1015.6
18 14.07 СЗ 3
{6}
н/о н/о +10.0 +3.3 63 +8 +8 1016.4 1015.5 +9.1 +11.3
19 14.07 С 3
{5}
н/о н/о +9.0 +4.0 71 +7 +7 1016.1 1015.2
20 14.07 С 4
{6}
н/о н/о +8.6 +4.1 73 +6 +6 1015.9 1015.0
21 14.07 С 1
{5}
н/о н/о +6.5 +3.5 81 +6 +6 1016.0 1015.1
22 14.07 З 1
{2}
н/о н/о +5.1 +2.8 85 +4 +4 1015.8 1015.0
23 14.07 З 1
{2}
н/о н/о +4.0 +3.0 93 +2 +2 1015.8 1015.0
00 15.07 З 1
{6}
н/о н/о +4.4 +3.2 92 +3 +3 1015.5 1014.7
01 15.07 штиль 0
{1}
н/о н/о +4.0 +3.3 95 +3 +3 1015.4 1014.5
02 15.07 З 1
{2}
н/о н/о +5.7 +5.7 100 +4 +4 1015.4 1014.5
03 15.07 СЗ 1
{2}
н/о н/о +8.4 +5.5 82 +8 +8 1015.1 1014.2
04 15.07 СЗ 1
{2}
н/о н/о +9.0 +4.4 73 +9 +9 1015.2 1014.4
05 15.07 СЗ 2
{3}
н/о н/о +9.0 +4.8 75 +7 +7 1015.2 1014.3
06 15.07 СВ 2
{5}
н/о н/о +9.1 +4.3 72 +8 +8 1015.0 1014.2 +3.8 +10.4
07 15.07 СЗ 2
{5}
н/о н/о +9.7 +4.7 71 +8 +8 1014.9 1014.1
08 15.07 ЮВ 2
{4}
н/о н/о +9.7 +5.7 76 +8 +8 1015.1 1014.2
09 15.07 СЗ 3
{4}
н/о н/о +10.2 +3.9 65 +8 +8 1015.1 1014.3
10 15.07 СЗ 3
{5}
н/о н/о +10.2 +5.0 70 +8 +8 1015.2 1014.3
11 15.07 СЗ 3
{5}
н/о н/о +10.7 +4.0 63 +9 +9 1015.1 1014.3
12 15.07 В 2
{5}
н/о н/о +11.4 +5.7 68 +10 +10 1015.2 1014.3
13 15.07 СВ 3
{5}
н/о н/о +12.2 +5.4 63 +11 +11 1015.3 1014.5
14 15.07 СЗ 5
{6}
н/о н/о +11.3 +4.1 61 +9 +9 1015.4 1014.6
15 15.07 СЗ 5
{6}
н/о н/о +11.2 +4.7 64 +9 +9 1015.5 1014.6
16 15.07 СЗ 4
{6}
н/о н/о +11.0 +4.5 64 +9 +9 1015.6 1014.7
17 15.07 СЗ 4
{6}
н/о н/о +10.7 +4.6 66 +8 +8 1015.6 1014.8
18 15.07 С 3
{7}
н/о н/о +10.3 +4.0 65 +8 +8 1015.8 1014.9 +9.1 +12.8
19 15.07 СЗ 4
{6}
н/о н/о +9.4 +4.2 70 +7 +7 1015.8 1015.0
20 15.07 СЗ 4
{6}
н/о н/о +8.8 +4.4 74 +6 +6 1016.1 1015.3
21 15.07 СЗ 3
{5}
н/о н/о +8.3 +4.3 76 +6 +6 1016.3 1015.5
22 15.07 СЗ 2
{5}
н/о н/о +6.3 +3.6 83 +4 +4 1016.5 1015.6
23 15.07 СЗ 1
{3}
н/о н/о +5.9 +3.6 85 +5 +5 1016.6 1015.7
00 16.07 штиль 0
{6}
н/о н/о +4.3 +2.8 90 +3 +3 1016.7 1015.8
01 16.07 З 1
{2}
н/о н/о +4.6 +4.0 96 +3 +3 1016.7 1015.8
02 16.07 СЗ 1
{2}
н/о н/о +6.9 +5.2 89 +6 +6 1016.9 1016.1
03 16.07 штиль 0
{1}
н/о н/о +9.0 +4.8 75 +8 +8 1017.1 1016.2
04 16.07 СЗ 2
{2}
н/о н/о +9.2 +3.4 67 +8 +8 1017.1 1016.3
05 16.07 З 2
{4}
н/о н/о +9.7 +5.3 74 +8 +8 1017.2 1016.3
06 16.07 СЗ 2
{4}
н/о н/о +10.3 +5.7 73 +9 +9 1017.1 1016.3 +4.2 +10.3
07 16.07 СЗ 3
{4}
н/о н/о +10.6 +5.0 68 +9 +9 1017.2 1016.4
08 16.07 СЗ 4
{5}
н/о н/о +10.5 +5.1 69 +8 +8 1017.3 1016.4
09 16.07 СЗ 5
{6}
н/о н/о +11.2 +5.3 67 +9 +9 1017.3 1016.4
10 16.07 СЗ 4
{6}
н/о н/о +11.5 +5.0 64 +9 +9 1017.4 1016.5
11 16.07 СЗ 5
{6}
н/о н/о +11.3 +5.6 68 +9 +9 1017.5 1016.7
12 16.07 СЗ 6
{7}
н/о н/о +11.3 +4.3 62 +9 +9 1017.6 1016.7
13 16.07 СЗ 6
{7}
н/о н/о +11.6 +3.9 59 +9 +9 1017.6 1016.7
14 16.07 СЗ 6
{7}
н/о н/о +11.8 +5.2 64 +9 +9 1017.6 1016.8
15 16.07 СЗ 6
{8}
н/о н/о +11.5 +5.2 65 +9 +9 1017.7 1016.8
16 16.07 С 5
{8}
н/о н/о +11.4 +5.3 66 +9 +9 1017.7 1016.9
17 16.07 СЗ 4
{8}
н/о н/о +11.7 +6.2 69 +10 +10 1017.8 1016.9
18 16.07 СЗ 4
{8}
н/о н/о +10.5 +6.6 77 +8 +8 1017.8 1017.0 +9.7 +12.4
19 16.07 СЗ 4
{6}
н/о н/о +10.8 +7.5 80 +8 +8 1017.6 1016.7
20 16.07 СЗ 3
{5}
н/о н/о +10.5 +9.1 91 +8 +8 1017.5 1016.7
21 16.07 СЗ 3
{5}
н/о н/о +10.4 +9.2 92 +8 +8 1017.6 1016.7
22 16.07 ЮЗ 1
{3}
н/о н/о +8.4 +8.4 100 +7 +7 1017.6 1016.7
23 16.07 З 1
{2}
н/о н/о +8.4 +8.4 100 +7 +7 1017.7 1016.9
00 17.07 З 1
{6}
н/о н/о +9.4 +9.0 97 +9 +9 1017.5 1016.7
01 17.07 З 1
{2}
н/о н/о +8.9 +8.9 100 +8 +8 1017.3 1016.4
03 17.07 З 2
{2}
н/о н/о +9.9 +9.9 100 +8 +8 1017.0 1016.1
04 17.07 СЗ 2
{3}
н/о н/о +10.1 +10.1 100 +8 +8 1016.7 1015.8

 

Местоположение метеостанции Хасвик аэропорт (Норвегия): широта 70.49 долгота 22.15 высота над уровнем моря 6 м.

В архиве по умолчанию представлена погода в Хасвик аэропорту за последнюю неделю. Архивные данные за месяц целиком и за предыдущие месяцы, начиная с января 2011 года, Вы можете получить, выбрав интересующий диапазон дат из раскрывающегося списка и нажав кнопку "Ввод!".


*Определитесь, кто Вы:
робот инопланетянин человек

Внимание! Время в таблицах - всемирное. Для получения местного времени необходимо прибавить поправку, которая равна 1 ч.

Смотрите также архив погоды в соседних городах и на ближайших метеорологических станциях:

Погода на Хасвике (Норвегия) (16 км)
Погода в Рогнсундете (Норвегия) (26 км)
Погода в Хаммерфест аэропорту (Норвегия) (50 км)
Погода в Альта аэропорту (Норвегия) (73 км)
Погода в Сёрхьюсен аэропорту (Норвегия) (90 км)
Погода на Маяке Fruholmen (Норвегия) (95 км)
Погода на Маяке Torsvag (Норвегия) (103 км)
Погода в Суоловуопми-Лулит (Норвегия) (114 км)
Погода в Банаке (Норвегия) (117 км)
Погода в Норднесфьеллете (Норвегия) (121 км)

Пояснения к столбцам:

Ветер - указаны скорость ветра в м/с - средняя за 10 мин, порывы в срок и между сроками (в фигурных скобках) и направление, откуда дует ветер: С - северный, СВ - северо-восточный, В - восточный, ЮВ - юго-восточный, Ю - южный, ЮЗ - юго-западный, З - западный, СЗ - северо-западный.
Видимость - горизонтальная дальность видимости в метрах или километрах. При видимости от 1 до 10 км при отсутствии осадков обычно наблюдается дымка, при ухудшении видимости до 1 км и менее - туман. В сухую погоду видимость может ухудшаться дымом, пылью или мглою.
Явления - указаны атмосферные явления, наблюдавшиеся в срок или в последний час перед сроком; фигурными скобками обозначены явления, наблюдавшиеся между сроками (за 1-3 часа до срока); квадратными скобками обозначены град или гололедные отложения с указанием их диаметра в мм.
Облачность - указаны через наклонную черту общая и нижняя облачность в баллах и высота нижней границы облаков в метрах; квадратными скобками обозначены формы облаков: Ci - перистые, Cs - перисто-слоистые, Cc - перисто-кучевые, Ac - высококучевые, As - высокослоистые, Sc - слоисто-кучевые, Ns - слоисто-дождевые, Cu - кучевые, Cb - кучево-дождевые. Подробнее классификацию облаков см. в Атласе облаков (PDF).
T - Температура воздуха - температура, измеренная на высоте 2 м над землей.
Td - Температура точки росы - температура, при понижении до которой содержащийся в воздухе водяной пар достигнет насыщения.
f - Относительная влажность воздуха - влажноcть воздуха, измеренная на высоте 2 м над землей.
Te - Эффективная температура - температура, которую ощущает одетый по сезону человек в тени. Характеристика душности погоды. При расчете учитывается влияние влажности воздуха и скорости ветра на теплоощущения человека.
Tes - Эффективная температура на солнце - температура, которую ощущает человек, с поправкой на солнечный нагрев. Характеристика знойности погоды. Зависит от высоты солнца над горизонтом, облачности и скорости ветра. Ночью, в пасмурную погоду, а также при ветре 12 м/с и более поправка равна нулю.
P - Атмосферное давление - приведенное к уровню моря атмосферное давление.
Po - Атмосферное давление - измеренное на уровне метеостанции атмосферное давление.
Tmin - Минимальная температура - минимум температуры воздуха на высоте 2 м над землей.
Tmax - Максимальная температура - максимум температуры воздуха на высоте 2 м над землей.
R - Количество осадков - Количество выпавших осадков за период времени, мм. При наведении курсора мыши на число - период времени, за который выпало указанное количество осадков.
R24 - Количество осадков - Количество выпавших осадков за 24 часа, мм.
S - Снежный покров - Высота снежного покрова, см. При наведении курсора мыши на число - состояние снежного покрова и степень покрытия местности в баллах.